This demonstration page uses our WeatherBlox Daily Observations layout. Learn more.

Left ArrowRight Arrow

39.29038, -76.61219

Hourly Observations for September 3, 2020

Temp ( °F °C ) Dew Point ( °F °C ) Humidity (%) Winds ( mph kmh ) Pressure ( in mb ) Visibility ( mi km ) Precip ( " mm )
12:54 am 00:54 Mostly Clear 76 24.4 73 22.8 91 91 WSW 6 9 29.84 1011 10 16 0.00 0.00
1:54 am 01:54 Mostly Clear 75 23.9 73 22.8 94 94 W 3 6 29.85 1011 10 16 0.00 0.00
2:54 am 02:54 Mostly Clear 75 23.9 73 22.8 94 94 Calm 29.84 1011 7 11 0.00 0.00
3:54 am 03:54 Mostly Clear 74 23.3 71 21.7 91 91 Calm 29.83 1010 7 11 0.00 0.00
4:54 am 04:54 Mostly Clear 73 22.8 71 21.7 94 94 Calm 29.84 1011 7 11 0.00 0.00
5:54 am 05:54 Mostly Clear 73 22.8 71 21.7 94 94 Calm 29.85 1011 7 11 0.00 0.00
6:54 am 06:54 Partly Cloudy 71 21.7 70 21.1 96 96 Calm 29.86 1011 7 11 0.00 0.00
7:54 am 07:54 Partly Cloudy 76 24.4 72 22.2 88 88 W 3 6 29.87 1011 7 11 0.00 0.00
8:54 am 08:54 Sunny 79 26.1 73 22.8 82 82 Calm 29.86 1011 10 16 0.00 0.00
9:54 am 09:54 Partly Cloudy 81 27.2 72 22.2 74 74 Calm 29.86 1011 10 16 0.00 0.00
10:54 am 10:54 Partly Cloudy 84 28.9 71 21.7 65 65 Calm 29.86 1011 10 16 0.00 0.00
11:54 am 11:54 Mostly Cloudy 85 29.4 71 21.7 63 63 S 3 6 29.85 1011 10 16 0.00 0.00
12:54 pm 12:54 Mostly Cloudy 88 31.1 73 22.8 61 61 S 5 7 29.82 1010 10 16 0.00 0.00
1:54 pm 13:54 Mostly Cloudy 87 30.6 73 22.8 63 63 VRB 3 6 29.80 1009 10 16 0.00 0.00
2:54 pm 14:54 Mostly Cloudy 88 31.1 74 23.3 63 63 SSE 7 11 29.77 1008 10 16 0.00 0.00
3:54 pm 15:54 Mostly Cloudy 87 30.6 74 23.3 65 65 SSE 9 15 29.73 1007 10 16 0.00 0.00
4:54 pm 16:54 Mostly Cloudy 86 30 75 23.9 70 70 SE 8 13 29.71 1006 10 16 0.00 0.00
5:06 pm 17:06 Mostly Cloudy with Thunderstorms 85 29.4 75 23.9 72 72 SSE 5 7 29.71 1006 10 16 0.00 0.00
5:22 pm 17:22 Cloudy with Thunderstorms 83 28.3 75 23.9 77 77 SE 5 7 29.71 1006 2 3 0.04 1.02
5:46 pm 17:46 Cloudy with Strong Thunderstorms 79 26.1 77 25 94 94 WNW 9 15 29.75 1008 1 1 0.43 10.92
5:54 pm 17:54 Cloudy with Strong Thunderstorms 79 26.1 77 25 94 94 NNW 8 13 29.75 1008 0 0 0.86 21.84
6:03 pm 18:03 Cloudy with Heavy Rain 80 26.7 77 25 90 90 Calm 29.75 1007 4 6 0.15 3.81
6:31 pm 18:31 Cloudy with Mist and Fog 80 26.7 77 25 90 90 E 6 9 29.73 1007 6 10 0.17 4.32
6:54 pm 18:54 Mostly Cloudy with Mist and Fog 80 26.7 76 24.4 87 87 NE 6 9 29.74 1007 6 10 0.17 4.32
7:44 pm 19:44 Cloudy with Light Rain 79 26.1 76 24.4 90 90 NNE 3 6 29.73 1007 2 3 0.04 1.02
7:54 pm 19:54 Cloudy with Mist and Fog 79 26.1 76 24.4 90 90 E 5 7 29.73 1007 6 10 0.04 1.02
8:20 pm 20:20 Cloudy with Rain 78 25.6 76 24.4 93 93 S 10 17 29.75 1008 2 3 0.08 2.03
8:45 pm 20:45 Cloudy with Rain 78 25.6 75 23.9 90 90 WNW 3 6 29.76 1008 3 5 0.25 6.35
8:47 pm 20:47 Cloudy with Thunderstorms 78 25.6 75 23.9 90 90 WNW 3 6 29.76 1008 2 3 0.29 7.37
8:54 pm 20:54 Cloudy with Thunderstorms 78 25.6 75 23.9 90 90 NE 5 7 29.76 1008 3 4 0.34 8.64
9:12 pm 21:12 Cloudy 78 25.6 75 23.9 90 90 Calm 29.75 1008 7 11 0.06 1.52
9:54 pm 21:54 Cloudy with Light Rain 78 25.6 75 23.9 90 90 SW 3 6 29.76 1008 9 14 0.10 2.54
10:54 pm 22:54 Mostly Cloudy 77 25 75 23.9 94 94 Calm 29.77 1008 10 16 0.00 0.00
11:37 pm 23:37 Cloudy with Rain 78 25.6 76 24.4 93 93 SSW 3 6 29.78 1009 2 3 0.04 1.02
11:44 pm 23:44 Cloudy with Light Rain 77 25 75 23.9 94 94 WSW 5 7 29.77 1008 3 4 0.06 1.52
11:54 pm 23:54 Mostly Cloudy with Mist and Fog 77 25 75 23.9 94 94 W 3 6 29.77 1008 6 10 0.06 1.52

Powered by AerisWeather